Location: Santa Fe
(35.6870°N, 105.9370°W)
Time: 19:51:33
(UTC-06:00)

Amateur Radio Satellites - All Passes

Search period start: 30 June 2015 19:21
Search period end: 01 July 2015 19:21
Location: Santa Fe, 35.6870°N, 105.9370°W

Satellite Date Start Highest point End Downlink Frequencies (MHz)
Time Altitude Azimuth
GONETS M04 30 Jun 19:21:58 19:25:45 14° 61° (ENE) 19:30:12
JUGNU 30 Jun 19:30:53 19:34:26 16° 176° (S) 19:37:58 437.505
STRAND 1 30 Jun 19:37:34 19:42:23 40° 98° (E) 19:47:13 437.568
Cubesat XI-IV 30 Jun 19:45:34 19:49:41 21° 267° (W) 19:53:38 437.490
DOVE 4 30 Jun 19:53:26 19:56:47 19° 70° (ENE) 20:00:11 437.250
Cosmos 2504 30 Jun 19:55:20 19:59:55 16° 276° (W) 20:04:06 435.465 / 435.565
HO-68 30 Jun 19:56:14 20:02:21 33° 66° (ENE) 20:08:38 435.675
CUSAT 1 30 Jun 19:56:32 19:59:14 67° 80° (E) 20:01:48 437.405
SO-50 30 Jun 19:59:34 20:01:04 11° 320° (NW) 20:02:21 436.795
AAUSAT CUBESAT 2 30 Jun 20:13:08 20:14:23 11° 68° (ENE) 20:15:51 437.432
SRMSAT 30 Jun 20:15:31 20:18:14 13° 170° (S) 20:21:01 437.500
GOMX 1 30 Jun 20:24:09 20:29:26 65° 76° (ENE) 20:34:26 467.674
BRITE-PL 30 Jun 20:26:29 20:32:07 75° 258° (WSW) 20:37:30 437.365/2234.400
AIST 2 30 Jun 20:26:55 20:28:26 11° 251° (WSW) 20:29:42 435.215
CUBESAT XI-V 30 Jun 20:27:45 20:31:06 19° 291° (WNW) 20:34:16 437.345
CUTE 1.7 + AOD 2 30 Jun 20:28:52 20:32:38 34° 73° (ENE) 20:36:28 437.475
DANDE 30 Jun 20:30:45 20:33:37 51° 265° (W) 20:36:09 436.750
CANX-2 30 Jun 20:31:23 20:35:18 41° 74° (ENE) 20:39:17 2200.000
COMPASS 1 30 Jun 20:33:17 20:36:34 24° 71° (ENE) 20:39:57 437.405
M-CUBED/EXP-1 PRIME 30 Jun 20:41:22 20:43:45 15° 98° (E) 20:46:24 437.505
CUBEBUG 2 30 Jun 20:51:43 20:54:00 15° 69° (ENE) 20:56:26 437.445
PRISM 30 Jun 20:55:14 20:58:44 25° 289° (WNW) 21:02:07 437.425
DELFI C3 30 Jun 20:58:23 20:59:21 11° 68° (ENE) 21:00:33 145.870
CINEMA 3 30 Jun 21:09:15 21:13:46 52° 75° (ENE) 21:18:06 145.822/145.860
ZACube-1 30 Jun 21:12:36 21:14:53 15° 69° (ENE) 21:17:18 437.345
GONETS M04 30 Jun 21:15:31 21:24:16 82° 83° (E) 21:32:58
STRAND 1 30 Jun 21:17:27 21:21:21 21° 292° (WNW) 21:25:05 437.568
JUGNU 30 Jun 21:19:18 21:22:43 16° 186° (S) 21:26:05 437.505
SEEDS 30 Jun 21:23:39 21:27:47 62° 260° (W) 21:31:55 437.485
Oscar 11 30 Jun 21:29:01 21:33:01 40° 74° (ENE) 21:37:05 145.826/435.025
DOVE 4 30 Jun 21:29:31 21:34:19 42° 262° (W) 21:38:51 437.250
HO-68 30 Jun 21:43:12 21:49:57 43° 262° (W) 21:56:38 435.675
AUBIESAT-1 30 Jun 21:44:20 21:48:31 72° 107° (ESE) 21:52:58 437.475
AAUSAT CUBESAT 2 30 Jun 21:45:35 21:49:35 50° 261° (W) 21:53:37 437.432
FUNcube-1 30 Jun 21:48:53 21:52:48 37° 74° (ENE) 21:56:42 145.935
UWE-3 30 Jun 21:49:40 21:53:52 53° 75° (ENE) 21:58:00 435.000/436.395/437.385
SRMSAT 30 Jun 22:03:02 22:06:40 17° 180° (S) 22:10:18 437.500
HUMSAT D 30 Jun 22:05:01 22:08:17 24° 72° (ENE) 22:11:38 437.325/437.525
GOMX 1 30 Jun 22:05:27 22:07:56 13° 270° (W) 22:10:03 467.674
CUTE 1.7 + AOD 2 30 Jun 22:05:58 22:08:42 16° 268° (W) 22:11:15 437.475
COMPASS 1 30 Jun 22:08:52 22:12:11 22° 266° (W) 22:15:25 437.405
CANX-2 30 Jun 22:09:18 22:11:29 13° 269° (W) 22:13:27 2200.000
VELOX 1 30 Jun 22:10:42 22:12:53 14° 67° (ENE) 22:15:17 145.980
M-CUBED/EXP-1 PRIME 30 Jun 22:14:44 22:18:40 42° 290° (WNW) 22:22:51 437.505
Cosmos 2499 30 Jun 22:23:56 22:31:23 48° 78° (ENE) 22:39:27 435.465 / 435.565
CUBEBUG 2 30 Jun 22:26:13 22:30:25 42° 261° (W) 22:34:29 437.445
DELFI C3 30 Jun 22:30:10 22:34:02 49° 261° (W) 22:37:57 145.870
DX 1 30 Jun 22:33:57 22:38:10 48° 74° (ENE) 22:42:25 434.975-435.025
ANTELSAT 30 Jun 22:46:41 22:49:50 20° 94° (E) 22:53:09 437.575/2403.000
ZACube-1 30 Jun 22:46:56 22:50:58 39° 262° (W) 22:54:55 437.345
CINEMA 3 30 Jun 22:49:13 22:51:16 12° 269° (W) 22:53:00 145.822/145.860
AISAT 30 Jun 22:54:07 22:58:21 44° 74° (ENE) 23:02:38 437.250
TIGRISAT 30 Jun 23:00:32 23:04:13 27° 96° (E) 23:08:01 435.000
50 SAT 30 Jun 23:00:56 23:04:41 56° 75° (ENE) 23:08:27 437.505
UKube-1 30 Jun 23:01:08 23:05:29 87° 257° (WSW) 23:09:51 .
POPSAT HIP 1 30 Jun 23:02:52 23:02:54 10° 89° (E) 23:03:15 437.405
Oscar 11 30 Jun 23:07:03 23:09:27 14° 269° (W) 23:11:38 145.826/435.025
ESTCUBE 1 30 Jun 23:11:06 23:15:20 41° 73° (ENE) 23:19:37 437.505/2401.250
GONETS M04 30 Jun 23:14:52 23:20:12 17° 278° (W) 23:24:57
CUBEBUG 1 30 Jun 23:25:12 23:29:29 50° 75° (ENE) 23:33:49 437.445
FUNcube-1 30 Jun 23:26:49 23:29:19 15° 268° (W) 23:31:36 145.935
UWE-3 30 Jun 23:29:45 23:30:45 10° 270° (W) 23:31:28 435.000/436.395/437.385
UNISAT 6 30 Jun 23:37:56 23:42:19 80° 102° (ESE) 23:46:45 437.425
QB50P1 30 Jun 23:39:10 23:42:51 30° 96° (E) 23:46:35 145.935-145.965
HUMSAT D 30 Jun 23:40:42 23:43:59 22° 265° (W) 23:47:09 437.325/437.525
VELOX 1 30 Jun 23:44:44 23:49:04 49° 260° (W) 23:53:24 145.980
SRMSAT 30 Jun 23:52:20 23:55:06 13° 190° (S) 23:57:48 437.500
NANOSAT C BR1 30 Jun 23:54:47 23:58:49 46° 99° (E) 00:02:52 145.865
POLYITAN 1 01 Jul 00:02:49 00:06:59 61° 101° (E) 00:11:08 437.675
DUCHIFAT 1 01 Jul 00:03:07 00:07:16 58° 100° (E) 00:11:23 145.980
TISAT 1 01 Jul 00:06:09 00:09:36 25° 71° (ENE) 00:13:09 437.305
DX 1 01 Jul 00:12:45 00:14:45 12° 269° (W) 00:16:30 434.975-435.025
Cosmos 2499 01 Jul 00:17:39 00:24:19 30° 272° (W) 00:31:08 435.465 / 435.565
ANTELSAT 01 Jul 00:22:48 00:26:41 31° 288° (WNW) 00:30:32 437.575/2403.000
AISAT 01 Jul 00:32:40 00:35:12 14° 269° (W) 00:37:31 437.250
QB50P2 01 Jul 00:33:15 00:37:23 54° 285° (WNW) 00:41:29 145.880/145.840
POPSAT HIP 1 01 Jul 00:35:04 00:39:10 53° 285° (WNW) 00:43:15 437.405
TIGRISAT 01 Jul 00:37:26 00:40:51 22° 289° (WNW) 00:44:13 435.000
BUGSAT 1 01 Jul 00:38:32 00:42:36 79° 283° (WNW) 00:46:37 437.445
SPROUT 01 Jul 00:43:01 00:47:19 75° 258° (WSW) 00:51:39 437.525
ESTCUBE 1 01 Jul 00:49:37 00:52:26 16° 268° (W) 00:55:04 437.505/2401.250
RS-15 01 Jul 01:01:22 01:03:40 11° 100° (E) 01:07:13 29.354- 29.394
CUBEBUG 1 01 Jul 01:04:13 01:06:11 12° 270° (W) 01:07:54 437.445
PCSat 01 Jul 01:10:55 01:14:32 18° 49° (NE) 01:18:20 145.827
QB50P1 01 Jul 01:15:32 01:18:33 19° 290° (WNW) 01:21:25 145.935-145.965
NANOSAT C BR1 01 Jul 01:32:21 01:34:18 13° 292° (WNW) 01:36:01 145.865
DUCHIFAT 1 01 Jul 01:41:54 01:42:37 10° 293° (WNW) 01:43:04 145.980
TISAT 1 01 Jul 01:41:55 01:45:21 23° 265° (W) 01:48:40 437.305
BEESAT 01 Jul 01:49:33 01:54:13 59° 74° (ENE) 01:58:56 436.000
Oscar 19 01 Jul 02:02:53 02:07:38 39° 98° (E) 02:12:26 437.125/150
SWISSCUBE 01 Jul 02:04:23 02:09:10 87° 257° (WSW) 02:14:00 437.505
ITUPSAT 1 01 Jul 02:07:43 02:12:29 90° 349° (N) 02:17:18 437.325
ITAMSAT 1 01 Jul 02:09:31 02:09:37 10° 88° (E) 02:10:09 435.822/435.867
KKS-1 01 Jul 02:32:15 02:35:54 26° 71° (ENE) 02:39:39 437.445
SO-50 01 Jul 02:49:22 02:54:04 42° 55° (NE) 02:58:42 436.795
PCSat 01 Jul 02:53:05 02:58:26 61° 247° (WSW) 03:03:45 145.827
RS-15 01 Jul 03:03:39 03:14:24 71° 115° (ESE) 03:25:27 29.354- 29.394
Cosmos 2491 01 Jul 03:09:19 03:18:01 66° 80° (E) 03:26:39 435.465 / 435.565
Gurwin Techsat 1B 01 Jul 03:15:26 03:20:40 57° 100° (E) 03:25:53 435.225
BEESAT 01 Jul 03:30:33 03:32:31 12° 270° (W) 03:34:11 436.000
STARS 01 Jul 03:33:22 03:37:46 79° 76° (ENE) 03:42:10 437.465
AIST 1 01 Jul 03:34:49 03:39:09 60° 81° (E) 03:43:25
YUBILEINY 01 Jul 03:41:00 03:49:14 51° 90° (E) 03:57:33 435.215
Oscar 19 01 Jul 03:42:52 03:46:46 22° 292° (WNW) 03:50:32 437.125/150
ITAMSAT 1 01 Jul 03:44:35 03:49:49 78° 285° (WNW) 03:55:01 435.822/435.867
MOZHAYETS 4 01 Jul 03:58:02 04:01:21 21° 70° (ENE) 04:04:50
KKS-1 01 Jul 04:08:49 04:12:30 24° 265° (W) 04:16:07 437.445
JAS-2 01 Jul 04:26:20 04:32:52 70° 102° (ESE) 04:40:13 435.910
SO-50 01 Jul 04:30:41 04:34:21 20° 250° (WSW) 04:37:49 436.795
Gurwin Techsat 1B 01 Jul 04:56:53 05:00:14 16° 294° (WNW) 05:03:20 435.225
AO-7 01 Jul 04:58:08 05:06:27 65° 104° (ESE) 05:14:44 29.400- 29.500
HORYU 2 01 Jul 05:02:12 05:06:41 80° 283° (WNW) 05:11:08 437.375
Cosmos 2491 01 Jul 05:07:41 05:14:13 23° 276° (W) 05:20:20 435.465 / 435.565
RS-15 01 Jul 05:18:09 05:27:49 33° 319° (NW) 05:37:35 29.354- 29.394
MOZHAYETS 4 01 Jul 05:34:18 05:38:24 32° 264° (W) 05:42:30
YUBILEINY 01 Jul 05:38:53 05:46:26 31° 289° (WNW) 05:53:46 435.215
CUBESAT XI-V 01 Jul 05:50:18 05:54:12 27° 71° (ENE) 05:58:11 437.345
PRISM 01 Jul 06:09:06 06:10:34 12° 67° (ENE) 06:12:15 437.425
JAS-2 01 Jul 06:13:00 06:17:35 20° 293° (WNW) 06:22:12 435.910
Cubesat XI-IV 01 Jul 06:25:20 06:29:15 21° 93° (E) 06:33:19 437.490
Cosmos 2504 01 Jul 06:34:43 06:41:59 74° 95° (E) 06:49:08 435.465 / 435.565
STRAND 1 01 Jul 06:50:32 06:55:20 43° 72° (ENE) 07:00:13 437.568
AO-7 01 Jul 06:52:00 06:58:43 27° 300° (WNW) 07:05:09 29.400- 29.500
CUSAT 1 01 Jul 07:17:49 07:21:19 15° 92° (E) 07:24:50 437.405
CUBESAT XI-V 01 Jul 07:27:38 07:31:35 26° 265° (W) 07:35:29 437.345
CUTE-I 01 Jul 07:31:11 07:36:35 88° 287° (WNW) 07:41:57 437.470
RS-15 01 Jul 07:40:19 07:45:26 13° 352° (N) 07:50:27 29.354- 29.394
BEESAT 3 01 Jul 07:40:55 07:44:15 25° 113° (ESE) 07:47:41 437.485
PRISM 01 Jul 07:41:34 07:45:36 50° 260° (W) 07:49:41 437.425
BEESAT 2 01 Jul 07:47:52 07:51:07 24° 112° (ESE) 07:54:30 435.950
DANDE 01 Jul 07:52:56 07:58:59 26° 93° (E) 08:04:22 436.750
Cubesat XI-IV 01 Jul 08:04:30 08:09:34 42° 288° (WNW) 08:14:33 437.490
GONETS M04 01 Jul 08:20:01 08:25:06 18° 82° (E) 08:30:44
ISS 01 Jul 08:24:18 08:26:16 16° 129° (SE) 08:28:20 145.825
AUBIESAT-1 01 Jul 08:30:22 08:33:33 49° 71° (ENE) 08:36:49 437.475
GOMX 1 01 Jul 08:30:27 08:33:28 19° 93° (E) 08:36:32 467.674
STRAND 1 01 Jul 08:31:05 08:34:47 19° 268° (W) 08:38:18 437.568
Cosmos 2504 01 Jul 08:31:52 08:36:16 16° 294° (WNW) 08:40:13 435.465 / 435.565
BRITE-PL 01 Jul 08:35:26 08:39:31 40° 97° (E) 08:43:29 437.365/2234.400
AIST 2 01 Jul 08:41:54 08:45:11 23° 112° (ESE) 08:48:36 435.215
O/OREOS (USA 219) 01 Jul 08:44:49 08:49:13 61° 292° (WNW) 08:53:38 437.305
CUSAT 1 01 Jul 08:56:35 09:03:53 74° 279° (W) 09:09:31 437.405
M-CUBED/EXP-1 PRIME 01 Jul 09:01:11 09:04:20 42° 256° (WSW) 09:07:29 437.505
VERMONT LUNAR 01 Jul 09:07:23 09:10:27 55° 154° (SSE) 09:13:32 437.305
CINEMA 3 01 Jul 09:08:35 09:10:34 14° 91° (E) 09:12:48 145.822/145.860
SEEDS 01 Jul 09:11:12 09:14:44 26° 95° (E) 09:18:21 437.485
HO-68 01 Jul 09:13:38 09:20:24 44° 99° (E) 09:27:11 435.675
BEESAT 3 01 Jul 09:18:46 09:22:10 24° 308° (NW) 09:25:32 437.485
BEESAT 2 01 Jul 09:25:36 09:29:06 26° 307° (NW) 09:32:36 435.950
AAUSAT CUBESAT 2 01 Jul 09:31:29 09:35:10 30° 96° (E) 09:38:54 437.432
DOVE 4 01 Jul 09:31:33 09:35:41 64° 100° (E) 09:39:48 437.250
DANDE 01 Jul 09:34:25 09:42:06 52° 281° (W) 09:48:12 436.750
UWE-3 01 Jul 09:44:03 09:45:48 13° 91° (E) 09:47:49 435.000/436.395/437.385
ANTELSAT 01 Jul 09:44:35 09:46:21 13° 68° (ENE) 09:48:20 437.575/2403.000
CUTE 1.7 + AOD 2 01 Jul 09:52:06 09:56:23 78° 283° (WNW) 10:00:40 437.475
COMPASS 1 01 Jul 09:53:59 09:58:11 69° 100° (E) 10:02:25 437.405
CANX-2 01 Jul 09:54:55 09:59:10 64° 284° (WNW) 10:03:24 2200.000
RS-15 01 Jul 09:56:26 10:04:19 21° 28° (NNE) 10:12:51 29.354- 29.394
TIGRISAT 01 Jul 09:57:33 10:00:19 17° 69° (ENE) 10:03:12 435.000
ISS 01 Jul 09:59:22 10:02:27 39° 323° (NW) 10:05:32 145.825
GOMX 1 01 Jul 10:08:05 10:11:41 26° 289° (WNW) 10:15:07 467.674
PHONESAT 2.4 01 Jul 10:10:07 10:13:14 33° 149° (SSE) 10:16:23 2401.200-2431.200
GONETS M04 01 Jul 10:12:16 10:21:05 80° 278° (W) 10:29:54
DELFI C3 01 Jul 10:12:23 10:15:47 26° 95° (E) 10:19:14 145.870
BRITE-PL 01 Jul 10:15:22 10:17:44 14° 293° (WNW) 10:19:51 437.365/2234.400
CUBEBUG 2 01 Jul 10:19:49 10:23:50 45° 99° (E) 10:27:57 437.445
AIST 2 01 Jul 10:19:53 10:23:38 29° 307° (NW) 10:27:23 435.215
DX 1 01 Jul 10:28:29 10:28:45 10° 90° (E) 10:29:19 434.975-435.025
QB50P1 01 Jul 10:29:59 10:32:40 17° 69° (ENE) 10:35:29 145.935-145.965
UNISAT 6 01 Jul 10:34:11 10:38:20 48° 75° (ENE) 10:42:28 437.425
ZACube-1 01 Jul 10:37:59 10:42:00 44° 99° (E) 10:46:06 437.345
CINEMA 3 01 Jul 10:44:08 10:48:00 38° 286° (WNW) 10:51:55 145.822/145.860
VERMONT LUNAR 01 Jul 10:44:29 10:47:28 39° 349° (N) 10:50:29 437.305
NANOSAT C BR1 01 Jul 10:44:52 10:48:16 24° 71° (ENE) 10:51:46 145.865
SEEDS 01 Jul 10:47:05 10:50:26 22° 289° (WNW) 10:53:40 437.485
AISAT 01 Jul 10:50:56 10:51:14 10° 89° (E) 10:51:52 437.250
UKube-1 01 Jul 10:52:28 10:55:31 19° 94° (E) 10:58:41 .
DUCHIFAT 1 01 Jul 10:52:48 10:56:28 29° 72° (ENE) 11:00:11 145.980
POLYITAN 1 01 Jul 10:53:07 10:56:52 31° 72° (ENE) 11:00:39 437.675
Oscar 11 01 Jul 10:54:53 10:59:11 63° 285° (WNW) 11:03:28 145.826/435.025
Cosmos 2499 01 Jul 10:58:12 11:04:37 39° 90° (E) 11:11:05 435.465 / 435.565
HO-68 01 Jul 11:01:45 11:07:56 32° 295° (WNW) 11:14:00 435.675
AAUSAT CUBESAT 2 01 Jul 11:07:33 11:10:35 19° 290° (WNW) 11:13:31 437.432
ESTCUBE 1 01 Jul 11:09:18 11:10:17 11° 89° (E) 11:11:34 437.505/2401.250
FUNcube-1 01 Jul 11:15:41 11:19:51 64° 284° (WNW) 11:24:04 145.935
ANTELSAT 01 Jul 11:18:36 11:22:48 48° 261° (W) 11:26:57 437.575/2403.000
UWE-3 01 Jul 11:18:36 11:22:36 43° 286° (WNW) 11:26:38 435.000/436.395/437.385
CUBEBUG 1 01 Jul 11:19:23 11:20:39 11° 90° (E) 11:22:12 437.445
QB50P2 01 Jul 11:22:51 11:27:05 74° 76° (ENE) 11:31:20 145.880/145.840
POPSAT HIP 1 01 Jul 11:24:30 11:28:45 75° 77° (ENE) 11:33:00 437.405
BUGSAT 1 01 Jul 11:25:20 11:29:23 47° 75° (ENE) 11:33:28 437.445
HUMSAT D 01 Jul 11:26:19 11:30:28 69° 101° (E) 11:34:38 437.325/437.525
TIGRISAT 01 Jul 11:32:54 11:36:52 34° 263° (W) 11:40:45 435.000
VELOX 1 01 Jul 11:38:10 11:42:17 38° 98° (E) 11:46:23 145.980
DELFI C3 01 Jul 11:47:39 11:50:44 20° 289° (WNW) 11:53:43 145.870
PHONESAT 2.4 01 Jul 11:47:47 11:51:10 55° 344° (NNW) 11:54:36 2401.200-2431.200
CUBEBUG 2 01 Jul 11:58:12 12:00:13 13° 292° (WNW) 12:02:03 437.445
DX 1 01 Jul 12:01:09 12:05:26 57° 285° (WNW) 12:09:40 434.975-435.025
QB50P1 01 Jul 12:04:22 12:08:17 35° 262° (W) 12:12:11 145.935-145.965
RS-15 01 Jul 12:08:10 12:19:49 65° 55° (NE) 12:31:56 29.354- 29.394
UNISAT 6 01 Jul 12:13:41 12:15:27 12° 269° (W) 12:16:57 437.425
50 SAT 01 Jul 12:13:47 12:17:38 59° 284° (WNW) 12:21:28 437.505
GONETS M04 01 Jul 12:15:18 12:19:39 14° 299° (WNW) 12:23:18
ZACube-1 01 Jul 12:15:53 12:18:03 13° 291° (WNW) 12:20:02 437.345
NANOSAT C BR1 01 Jul 12:20:35 12:24:03 23° 265° (W) 12:27:24 145.865
VERMONT LUNAR 01 Jul 12:21:52 12:24:48 34° 6° (N) 12:27:46 437.305
AISAT 01 Jul 12:23:55 12:28:16 58° 286° (WNW) 12:32:35 437.250
UKube-1 01 Jul 12:27:53 12:31:43 31° 288° (WNW) 12:35:29 .
DUCHIFAT 1 01 Jul 12:29:12 12:32:19 19° 266° (W) 12:35:19 145.980
POLYITAN 1 01 Jul 12:29:50 12:32:51 18° 267° (W) 12:35:42 437.675
SPROUT 01 Jul 12:33:15 12:36:37 23° 95° (E) 12:40:03 437.525
ESTCUBE 1 01 Jul 12:43:08 12:47:36 59° 285° (WNW) 12:52:03 437.505/2401.250
Cosmos 2499 01 Jul 12:51:41 12:57:52 30° 287° (WNW) 13:03:53 435.465 / 435.565
CUBEBUG 1 01 Jul 12:53:09 12:57:24 51° 286° (WNW) 13:01:36 437.445
BUGSAT 1 01 Jul 13:03:22 13:05:09 12° 269° (W) 13:06:42 437.445
VELOX 1 01 Jul 13:15:38 13:18:34 17° 292° (WNW) 13:21:18 145.980
Oscar 19 01 Jul 13:16:50 13:21:39 42° 72° (ENE) 13:26:30 437.125/150
ITAMSAT 1 01 Jul 13:23:30 13:25:47 13° 64° (ENE) 13:28:20 435.822/435.867
PHONESAT 2.4 01 Jul 13:26:20 13:29:33 35° 1° (N) 13:32:48 2401.200-2431.200
TISAT 1 01 Jul 13:28:14 13:32:25 68° 101° (E) 13:36:33 437.305
BEESAT 01 Jul 13:53:42 13:57:00 19° 93° (E) 14:00:29 436.000
YUBILEINY 01 Jul 13:55:44 14:01:45 21° 66° (ENE) 14:08:13 435.215
VERMONT LUNAR 01 Jul 13:58:46 14:01:57 87° 208° (SSW) 14:05:09 437.305
AO-7 01 Jul 14:07:08 14:10:17 13° 52° (NE) 14:14:00 29.400- 29.500
SWISSCUBE 01 Jul 14:08:05 14:12:16 30° 96° (E) 14:16:29 437.505
SPROUT 01 Jul 14:09:07 14:12:39 25° 289° (WNW) 14:16:06 437.525
ITUPSAT 1 01 Jul 14:11:42 14:15:51 29° 96° (E) 14:20:04 437.325
Cosmos 2491 01 Jul 14:15:57 14:19:11 13° 80° (E) 14:23:12 435.465 / 435.565
RS-15 01 Jul 14:21:29 14:31:48 35° 253° (WSW) 14:42:00 29.354- 29.394
Gurwin Techsat 1B 01 Jul 14:33:32 14:38:47 67° 75° (ENE) 14:44:05 435.225
JAS-2 01 Jul 14:39:00 14:42:05 17° 66° (ENE) 14:45:27 435.910
ISS 01 Jul 14:54:50 14:55:12 10° 22° (NNE) 14:55:38 145.825
Oscar 19 01 Jul 14:57:30 15:01:14 19° 267° (W) 15:04:46 437.125/150
ITAMSAT 1 01 Jul 14:59:34 15:04:45 69° 258° (WSW) 15:09:59 435.822/435.867
PHONESAT 2.4 01 Jul 15:04:26 15:07:54 65° 18° (NNE) 15:11:23 2401.200-2431.200
STARS 01 Jul 15:27:05 15:29:57 18° 93° (E) 15:32:59 437.465
BEESAT 01 Jul 15:30:34 15:35:01 38° 288° (WNW) 15:39:24 436.000
VERMONT LUNAR 01 Jul 15:36:41 15:38:36 15° 215° (SW) 15:40:28 437.305
SWISSCUBE 01 Jul 15:46:04 15:50:00 25° 291° (WNW) 15:53:48 437.505
PCSat 01 Jul 15:49:26 15:53:49 27° 108° (ESE) 15:58:20 145.827
ITUPSAT 1 01 Jul 15:49:41 15:53:39 25° 290° (WNW) 15:57:31 437.325
YUBILEINY 01 Jul 15:50:50 15:59:35 74° 266° (W) 16:08:18 435.215
AO-7 01 Jul 15:53:33 16:01:46 68° 70° (ENE) 16:10:04 29.400- 29.500
HORYU 2 01 Jul 15:57:24 16:01:46 65° 75° (ENE) 16:06:10 437.375
AIST 1 01 Jul 16:01:05 16:05:10 40° 92° (E) 16:09:20
KKS-1 01 Jul 16:01:47 16:06:14 80° 102° (ESE) 16:10:39 437.445
Cosmos 2491 01 Jul 16:06:06 16:14:57 83° 94° (E) 16:23:48 435.465 / 435.565
Gurwin Techsat 1B 01 Jul 16:16:59 16:19:21 12° 271° (W) 16:21:21 435.225
JAS-2 01 Jul 16:21:53 16:26:53 48° 261° (W) 16:31:57 435.910
ISS 01 Jul 16:29:01 16:32:13 58° 40° (NE) 16:35:24 145.825
Cosmos 2504 01 Jul 16:30:29 16:36:00 22° 70° (ENE) 16:42:07 435.465 / 435.565
PHONESAT 2.4 01 Jul 16:42:46 16:45:47 27° 212° (SSW) 16:48:47 2401.200-2431.200
SO-50 01 Jul 17:01:29 17:05:16 26° 112° (ESE) 17:09:16 436.795
STARS 01 Jul 17:02:33 17:06:32 34° 288° (WNW) 17:10:26 437.465
CUTE-I 01 Jul 17:13:36 17:15:55 13° 64° (ENE) 17:18:31 437.470
O/OREOS (USA 219) 01 Jul 17:20:00 17:22:15 14° 56° (ENE) 17:24:42 437.305
JUGNU 01 Jul 17:29:15 17:31:05 11° 167° (SSE) 17:33:01 437.505
MOZHAYETS 4 01 Jul 17:31:38 17:36:18 74° 102° (ESE) 17:40:57
PCSat 01 Jul 17:32:06 17:37:05 36° 304° (WNW) 17:42:04 145.827
BEESAT 3 01 Jul 17:39:06 17:43:10 81° 60° (ENE) 17:47:08 437.485
AIST 1 01 Jul 17:40:38 17:43:06 14° 289° (WNW) 17:45:22
Cubesat XI-IV 01 Jul 17:44:27 17:48:49 27° 69° (ENE) 17:53:19 437.490
BEESAT 2 01 Jul 17:46:37 17:50:41 76° 60° (ENE) 17:54:42 435.950
AO-7 01 Jul 17:48:48 17:55:15 23° 267° (W) 18:01:21 29.400- 29.500
YUBILEINY 01 Jul 17:52:59 17:55:09 11° 281° (WNW) 17:56:26 435.215
Cosmos 2491 01 Jul 18:07:06 18:13:03 18° 296° (WNW) 18:18:30 435.465 / 435.565
ISS 01 Jul 18:07:31 18:08:17 11° 232° (SW) 18:08:54 145.825
Cosmos 2504 01 Jul 18:22:22 18:30:00 66° 266° (W) 18:38:11 435.465 / 435.565
SO-50 01 Jul 18:41:25 18:45:41 32° 308° (NW) 18:50:03 436.795
AIST 2 01 Jul 18:43:40 18:47:52 76° 60° (ENE) 18:51:58 435.215
CUTE-I 01 Jul 18:50:06 18:55:26 72° 258° (WSW) 19:00:50 437.470
O/OREOS (USA 219) 01 Jul 18:57:39 19:02:03 52° 253° (WSW) 19:06:27 437.305
STRAND 1 01 Jul 19:04:58 19:08:24 18° 92° (E) 19:12:01 437.568
MOZHAYETS 4 01 Jul 19:12:34 19:12:59 10° 295° (WNW) 19:13:05
